Location: Bay Ridge
(40.6340°N, 74.0146°W)
Time: 21:57:48
(UTC+00:00)

STARLINK-44 - Pass Details

Date: 15 November 2019
Orbit: 529 x 530 km, 53.0° (Epoch: 08 December)

Event Time Altitude Azimuth Distance (km) Brightness Sun altitude
Rises 10:41:40 0° 223° (SW) 2,650 6.8 -11.7°
Reaches altitude 10° 10:43:53 10° 221° (SW) 1,765 5.9 -11.3°
Maximum altitude 10:47:51 69° 138° (SE) 567 3.9 -10.6°
Drops below altitude 10° 10:51:51 10° 55° (NE) 1,774 6.8 -9.8°
Sets 10:54:05 0° 53° (NE) 2,666 7.7 -9.4°
